Regional Weather Roundup
Issued by NWS

Home | Current Version | Previous Version | Graphics & Text | Print | Product List | Glossary On
Versions: 1 2 3 4 5 6 7 8 9 10 11 12 13 14 15 16 17 18 19 20 21 22 23 24 25 26 27 28 29 30 31 32 33 34 35 36 37 38 39 40 41 42 43 44 45 46 47 48 49 50
000
ASUS43 KLMK 170010
RWRKY
KENTUCKY REGIONAL WEATHER ROUNDUP
NATIONAL WEATHER SERVICE LOUISVILLE KY
800 PM EDT TUE SEP 16 2014

NOTE "FAIR" INDICATES FEW OR NO CLOUDS BELOW 12,000 FEET
WITH NO SIGNIFICANT WEATHER AND/OR OBSTRUCTIONS TO VISIBILITY.

KYZ001>023-026-027-061>063-070>075-170100-
WESTERN AND SOUTH CENTRAL KENTUCKY

CITY           SKY/WX    TMP DP  RH WIND       PRES   REMARKS
PADUCAH        CLEAR     63  54  72 N7        30.08F
HENDERSON      CLEAR     61  50  67 NE3       30.10S
OWENSBORO      PTCLDY    63  55  75 N7        30.09S
HOPKINSVILLE   CLEAR     65  54  66 N5        30.06F
BOWLING GREEN  MOCLDY    68  53  58 VRB5      30.06S
GLASGOW        CLEAR     63  54  72 CALM      30.06S
$$

KYZ024-025-028>034-038-045-046-053-170100-
NORTH CENTRAL KENTUCKY

CITY           SKY/WX    TMP DP  RH WIND       PRES   REMARKS
LOUISVILLE/SDF MOCLDY    62  53  72 N12       30.09F
LOUISVILLE/LOU CLOUDY    61  52  72 N8        30.10F
FORT KNOX      CLEAR     60  55  83 N7        30.08S
$$

KYZ035>037-039>044-047>052-055>060-089>105-170100-
NORTHEAST KENTUCKY

CITY           SKY/WX    TMP DP  RH WIND       PRES   REMARKS
LEXINGTON      CLEAR     60  53  77 NE9       30.09S
COVINGTON      CLOUDY    60  50  69 NW5       30.11S
FRANKFORT      CLEAR     59  53  80 N6        30.08F
$$

KYZ054-064>069-076>088-106>120-170100-
SOUTHEAST KENTUCKY

CITY           SKY/WX    TMP DP  RH WIND       PRES   REMARKS
JACKSON        CLOUDY    59  56  89 CALM      30.08S
LONDON         MOCLDY    63  56  78 NE6       30.07S
SOMERSET       NOT AVBL
MIDDLESBORO    MOCLDY    65  62  88 CALM      30.04F
MONTICELLO     CLEAR     65  60  83 CALM      30.07S
$$



USA.gov is the U.S. government's official web portal to all federal, state and local government web resources and services.